Location: Schommer Observatory
(40.5200°N, 74.4500°W)
Time: 16:39:03
(UTC-05:00)

ISS - Pass Details

Date: 14 November 2017
Orbit: 402 x 407 km, 51.6° (Epoch: 19 November)

Event Time Altitude Azimuth Distance (km) Brightness Sun altitude
Exits shadow 04:23:25 14° 43° (NE) 1,233 -0.9 -26.6°
Drops below altitude 10° 04:24:24 10° 59° (ENE) 1,454 -0.3 -26.4°
Sets 04:27:01 0° 81° (E) 2,311 1.3 -25.9°
